Terminal Aerodrome Forecast
Issued by NWS

Home | Current Version | Previous Version | Text Only | Print | Product List | Glossary On
Versions: 1 2 3 4 5 6 7 8 9 10 11 12 13 14 15 16 17 18 19 20 21
000
FTUS43 KIND 220900 AAA
TAFBMG
TAF AMD
KBMG 220936Z 2210/2306 00000KT 4SM BR SKC
      TEMPO 2210/2212 1SM BR
     FM221600 04005KT P6SM SKC
     FM222300 VRB02KT P6SM SKC
      AMD LTD TO CLD VIS AND WIND TIL 221300=

USA.gov is the U.S. government's official web portal to all federal, state and local government web resources and services.